| time (UTC) | temp F | wind direction | speed MPH | gust MPH | rain 1hr in | rain 24hr in | rain mn in | humidity % | barometer mb |
| 20260906131535 | 60 | 214 | 1.0 | 4.0 | 0.00 | 0.02 | 0.02 | 85 | 1010.6 |
| 20260906130028 | 60 | 214 | 1.0 | 4.0 | 0.00 | 0.02 | 0.02 | 86 | 1010.5 |
| 20260906124526 | 60 | 254 | 2.0 | 4.0 | 0.00 | 0.02 | 0.02 | 87 | 1010.5 |
| 20260906123026 | 60 | 260 | 2.0 | 4.0 | 0.00 | 0.02 | 0.02 | 86 | 1010.4 |
| 20260906121525 | 60 | 285 | 2.0 | 5.0 | 0.00 | 0.02 | 0.02 | 85 | 1010.3 |
| 20260906120026 | 60 | 207 | 2.0 | 4.0 | 0.00 | 0.02 | 0.02 | 86 | 1010.4 |
| 20260906114528 | 60 | 198 | 2.0 | 4.0 | 0.01 | 0.02 | 0.02 | 85 | 1010.4 |
| 20260906113034 | 60 | 217 | 2.0 | 4.0 | 0.02 | 0.02 | 0.02 | 86 | 1010.3 |
| 20260906111522 | 60 | 200 | 2.0 | 5.0 | 0.02 | 0.02 | 0.02 | 86 | 1010.4 |
| 20260906110020 | 61 | 177 | 2.0 | 4.0 | 0.02 | 0.02 | 0.02 | 86 | 1010.5 |
| 20260906104519 | 62 | 184 | 1.0 | 6.0 | 0.01 | 0.01 | 0.01 | 84 | 1010.5 |
| 20260906103016 | 62 | 225 | 2.0 | 5.0 | 0.00 | 0.00 | 0.00 | 83 | 1010.4 |
| 20260906101515 | 62 | 197 | 2.0 | 5.0 | 0.00 | 0.00 | 0.00 | 81 | 1010.5 |
| 20260906100014 | 63 | 223 | 2.0 | 6.0 | 0.00 | 0.00 | 0.00 | 82 | 1010.4 |
| 20260906094513 | 63 | 236 | 2.0 | 5.0 | 0.00 | 0.00 | 0.00 | 81 | 1010.4 |
| 20260906093033 | 63 | 180 | 2.0 | 5.0 | 0.00 | 0.00 | 0.00 | 81 | 1010.5 |
| 20260906091510 | 63 | 225 | 2.0 | 4.0 | 0.00 | 0.00 | 0.00 | 80 | 1010.6 |
| 20260906090013 | 63 | 232 | 2.0 | 5.0 | 0.00 | 0.00 | 0.00 | 78 | 1010.6 |
| 20260906084518 | 63 | 244 | 1.0 | 5.0 | 0.00 | 0.00 | 0.00 | 77 | 1010.9 |
| 20260906083106 | 63 | 211 | 3.0 | 6.0 | 0.00 | 0.00 | 0.00 | 78 | 1010.9 |
| 20260906081502 | 63 | 219 | 2.0 | 4.0 | 0.00 | 0.00 | 0.00 | 79 | 1011.2 |
| 20260906080001 | 63 | 199 | 2.0 | 4.0 | 0.00 | 0.00 | 0.00 | 81 | 1011.3 |
| 20260906074601 | 62 | 210 | 1.0 | 5.0 | 0.00 | 0.00 | 0.00 | 81 | 1011.6 |
| 20260906073056 | 62 | 223 | 2.0 | 4.0 | 0.00 | 0.00 | 0.00 | 83 | 1011.8 |
| 20260906071554 | 62 | 255 | 1.0 | 6.0 | 0.00 | 0.00 | 0.00 | 83 | 1011.9 |
| 20260906070051 | 63 | 175 | 1.0 | 4.0 | 0.00 | 0.00 | 0.00 | 82 | 1012.1 |
| 20260906064549 | 64 | 235 | 0.0 | 8.0 | 0.00 | 0.00 | 0.00 | 76 | 1011.9 |
| 20260906063054 | 64 | 232 | 1.0 | 5.0 | 0.00 | 0.00 | 0.00 | 75 | 1012.0 |
| 20260906061551 | 64 | 246 | 2.0 | 4.0 | 0.00 | 0.00 | 0.00 | 75 | 1011.9 |
| 20260906060048 | 64 | 219 | 1.0 | 4.0 | 0.00 | 0.00 | 0.00 | 75 | 1012.1 |
| 20260906054548 | 64 | 217 | 2.0 | 5.0 | 0.00 | 0.00 | 0.00 | 74 | 1012.1 |
| 20260906053102 | 63 | 243 | 2.0 | 5.0 | 0.00 | 0.00 | 0.00 | 74 | 1012.2 |
| 20260906051644 | 63 | 218 | 1.0 | 4.0 | 0.00 | 0.00 | 0.00 | 70 | 1012.3 |
| 20260906050044 | 63 | 236 | 1.0 | 4.0 | 0.00 | 0.00 | 0.00 | 68 | 1012.4 |
| 20260906044543 | 63 | 227 | 1.0 | 3.0 | 0.00 | 0.00 | 0.00 | 69 | 1012.5 |
| 20260906043042 | 63 | 225 | 1.0 | 3.0 | 0.00 | 0.00 | 0.00 | 67 | 1012.5 |
| 20260906041551 | 63 | 302 | 0.0 | 3.0 | 0.00 | 0.00 | 0.00 | 65 | 1012.3 |
| 20260906040040 | 63 | 234 | 1.0 | 3.0 | 0.00 | 0.00 | 0.00 | 63 | 1012.1 |
| 20260906034544 | 63 | 243 | 2.0 | 4.0 | 0.00 | 0.00 | 0.00 | 62 | 1012.1 |
| 20260906033045 | 64 | 247 | 2.0 | 5.0 | 0.00 | 0.00 | 0.00 | 60 | 1011.8 |
| 20260906031540 | 64 | 201 | 2.0 | 5.0 | 0.00 | 0.00 | 0.00 | 58 | 1011.7 |
| 20260906030043 | 65 | 252 | 1.0 | 3.0 | 0.00 | 0.00 | 0.00 | 57 | 1011.7 |
| 20260906024536 | 65 | 231 | 2.0 | 5.0 | 0.00 | 0.00 | 0.00 | 56 | 1011.5 |
| 20260906023035 | 66 | 258 | 2.0 | 4.0 | 0.00 | 0.00 | 0.00 | 54 | 1011.7 |
| 20260906021535 | 67 | 271 | 2.0 | 5.0 | 0.00 | 0.00 | 0.00 | 54 | 1011.7 |
| 20260906020035 | 68 | 246 | 2.0 | 5.0 | 0.00 | 0.00 | 0.00 | 52 | 1011.9 |
| 20260906014544 | 70 | 236 | 1.0 | 6.0 | 0.00 | 0.00 | 0.00 | 51 | 1012.0 |
| 20260906013033 | 70 | 188 | 1.0 | 5.0 | 0.00 | 0.00 | 0.00 | 51 | 1011.9 |
| 20260906011537 | 71 | 211 | 2.0 | 4.0 | 0.00 | 0.00 | 0.00 | 52 | 1012.1 |
| 20260906010055 | 72 | 248 | 2.0 | 5.0 | 0.00 | 0.00 | 0.00 | 49 | 1012.1 |
| 20260906004528 | 73 | 263 | 1.0 | 4.0 | 0.00 | 0.00 | 0.00 | 47 | 1012.2 |
| 20260906003027 | 73 | 126 | 1.0 | 5.0 | 0.00 | 0.00 | 0.00 | 48 | 1012.2 |
| 20260906001533 | 75 | 225 | 2.0 | 6.0 | 0.00 | 0.00 | 0.00 | 46 | 1012.3 |
| 20260906000021 | 75 | 247 | 2.0 | 5.0 | 0.00 | 0.00 | 0.00 | 45 | 1012.3 |
| 20260905234519 | 75 | 217 | 3.0 | 7.0 | 0.00 | 0.00 | 0.00 | 44 | 1012.4 |
| 20260905233019 | 73 | 217 | 1.0 | 5.0 | 0.00 | 0.00 | 0.00 | 44 | 1012.6 |
| 20260905231533 | 74 | 175 | 1.0 | 4.0 | 0.00 | 0.00 | 0.00 | 41 | 1012.7 |
| 20260905230017 | 76 | 227 | 2.0 | 5.0 | 0.00 | 0.00 | 0.00 | 40 | 1012.7 |
| 20260905224520 | 75 | 204 | 2.0 | 8.0 | 0.00 | 0.00 | 0.00 | 41 | 1012.8 |
| 20260905223029 | 74 | 9 | 1.0 | 7.0 | 0.00 | 0.00 | 0.00 | 43 | 1012.8 |
| 20260905221515 | 74 | 134 | 1.0 | 4.0 | 0.00 | 0.00 | 0.00 | 43 | 1012.8 |
| 20260905220014 | 75 | 168 | 1.0 | 7.0 | 0.00 | 0.00 | 0.00 | 41 | 1012.9 |
| 20260905214515 | 74 | 245 | 1.0 | 6.0 | 0.00 | 0.00 | 0.00 | 41 | 1012.9 |
| 20260905213019 | 74 | 257 | 2.0 | 5.0 | 0.00 | 0.00 | 0.00 | 42 | 1013.1 |
| 20260905211532 | 74 | 161 | 3.0 | 9.0 | 0.00 | 0.00 | 0.00 | 42 | 1013.3 |
| 20260905210012 | 75 | 214 | 1.0 | 6.0 | 0.00 | 0.00 | 0.00 | 40 | 1013.4 |
| 20260905204520 | 76 | 221 | 2.0 | 11.0 | 0.00 | 0.00 | 0.00 | 39 | 1013.4 |
| 20260905203009 | 76 | 223 | 2.0 | 9.0 | 0.00 | 0.00 | 0.00 | 42 | 1013.3 |
| 20260905201509 | 76 | 171 | 3.0 | 8.0 | 0.00 | 0.00 | 0.00 | 39 | 1013.5 |
| 20260905200007 | 77 | 332 | 2.0 | 10.0 | 0.00 | 0.00 | 0.00 | 40 | 1013.5 |
| 20260905194508 | 77 | 290 | 2.0 | 5.0 | 0.00 | 0.00 | 0.00 | 40 | 1013.5 |
| 20260905193110 | 77 | 207 | 1.0 | 7.0 | 0.00 | 0.00 | 0.00 | 40 | 1013.7 |
| 20260905191511 | 77 | 256 | 3.0 | 8.0 | 0.00 | 0.00 | 0.00 | 42 | 1014.0 |
| 20260905190003 | 76 | 150 | 2.0 | 6.0 | 0.00 | 0.00 | 0.00 | 44 | 1014.1 |
| 20260905184501 | 75 | 231 | 3.0 | 7.0 | 0.00 | 0.00 | 0.00 | 42 | 1014.0 |
| 20260905183111 | 74 | 279 | 2.0 | 5.0 | 0.00 | 0.00 | 0.00 | 42 | 1014.2 |
| 20260905181556 | 74 | 168 | 2.0 | 6.0 | 0.00 | 0.00 | 0.00 | 43 | 1014.1 |
| 20260905180056 | 74 | 175 | 3.0 | 7.0 | 0.00 | 0.00 | 0.00 | 40 | 1014.1 |
| 20260905174551 | 73 | 246 | 4.0 | 8.0 | 0.00 | 0.00 | 0.00 | 37 | 1013.9 |
| 20260905173048 | 72 | 258 | 3.0 | 7.0 | 0.00 | 0.00 | 0.00 | 40 | 1013.7 |
| 20260905171550 | 71 | 207 | 1.0 | 8.0 | 0.00 | 0.00 | 0.00 | 42 | 1013.5 |
| 20260905170047 | 69 | 209 | 2.0 | 8.0 | 0.00 | 0.00 | 0.00 | 46 | 1013.3 |
| 20260905164537 | 65 | 183 | 1.0 | 8.0 | 0.00 | 0.00 | 0.00 | 51 | 1013.4 |
| 20260905163034 | 63 | 171 | 3.0 | 7.0 | 0.00 | 0.00 | 0.00 | 50 | 1013.3 |
| 20260905161531 | 62 | 177 | 2.0 | 3.0 | 0.00 | 0.00 | 0.00 | 43 | 1013.2 |
| 20260905160029 | 62 | 211 | 2.0 | 5.0 | 0.00 | 0.00 | 0.00 | 34 | 1013.2 |
| 20260905154528 | 61 | 192 | 3.0 | 7.0 | 0.00 | 0.00 | 0.00 | 29 | 1013.2 |
| 20260905153027 | 61 | 227 | 2.0 | 6.0 | 0.00 | 0.00 | 0.00 | 30 | 1013.0 |
| 20260905151533 | 60 | 193 | 2.0 | 7.0 | 0.00 | 0.00 | 0.00 | 32 | 1012.9 |
| 20260905150025 | 60 | 162 | 3.0 | 9.0 | 0.00 | 0.00 | 0.00 | 33 | 1012.7 |
| 20260905144529 | 61 | 142 | 2.0 | 6.0 | 0.00 | 0.00 | 0.00 | 34 | 1012.5 |
| 20260905143020 | 62 | 170 | 3.0 | 8.0 | 0.00 | 0.00 | 0.00 | 36 | 1012.4 |
| 20260905141518 | 61 | 168 | 2.0 | 9.0 | 0.00 | 0.00 | 0.00 | 39 | 1012.1 |
| 20260905140017 | 60 | 226 | 2.0 | 4.0 | 0.00 | 0.00 | 0.00 | 46 | 1011.8 |
| 20260905134518 | 60 | 139 | 3.0 | 9.0 | 0.00 | 0.00 | 0.00 | 43 | 1011.4 |
| 20260905133015 | 61 | 142 | 2.0 | 8.0 | 0.00 | 0.00 | 0.00 | 44 | 1011.1 |